INMARSAT 3-F2

Last updated on Sun Apr 12 2026 00:02:50 GMT+0000 (Coordinated Universal Time)

1 24307U 96053A 26101.49191727 .00000126 00000+0 00000+0 0 9996 2 24307 9.7085 54.6040 0006532 330.5088 206.5709 0.99987561108258
UTC large
Height (km)
Speed (km/s)
/
Latitude / Longitude
Inclination (degrees)
Orbital Period (minutes)
Azimuth
Elevation
Range (km)
Doppler Factor

Next 0 passes for location: London (51.5072 / 0.1276)

Sorry there are no passes over London.
INMARSAT 3-F2